Location: Bergem
(50.7714°N, 4.1051°E)
Time: 11:47:43
(UTC+00:00)

Daily predictions for brighter satellites

Satellite Brightness Start Highest point End
(mag) Time Altitude Azimuth Time Altitude Azimuth Time Altitude Azimuth
ATLAS 5 CENTAUR R/B 2.6 16:27:10 10° NW 16:32:26 47° NE 16:38:30 10° ESE
FENGYUN 3A 4.4 16:29:23 10° S 16:34:45 61° WSW 16:40:10 10° NNW
Cosmos 2233 Rocket 4.2 16:29:24 10° N 16:35:35 51° ENE 16:41:42 10° SSE
Cosmos-2242 3.6 16:33:48 10° SSW 16:38:01 61° WNW 16:42:16 10° N
NOSS 5 (C) 4.5 16:34:54 10° SW 16:38:46 69° SE 16:41:52 10° NE
Cosmos 1408 2.7 16:36:19 10° NNW 16:39:57 77° W 16:43:32 10° S
Cosmos 2278 Rocket 4.4 16:39:50 10° NW 16:42:02 12° NNW 16:44:14 10° N
AQUARIUS 4.2 16:40:23 10° SSE 16:44:46 57° ENE 16:49:12 10° N
ASTEX 1 3.4 16:41:13 10° N 16:46:16 77° E 16:51:16 10° S
Cosmos 1867 4.1 16:41:31 10° S 16:46:35 41° ESE 16:51:42 10° NE
CENTAUR R/B 3.8 16:42:01 10° W 16:48:05 35° NNW 16:55:02 10° NE
Cosmos 1743 Rocket 3.5 16:43:45 10° N 16:48:06 66° ENE 16:52:26 10° SSE
Cosmos 1805 Rocket 4.3 16:44:38 10° N 16:48:29 30° ENE 16:52:20 10° SE
Cosmos 1656 Rocket 4.0 16:47:13 10° SW 16:52:42 66° WNW 16:58:09 10° NNE
Cosmos 1340 Rocket 3.0 16:51:23 10° SSW 16:55:24 78° WNW 16:59:29 10° N
Okean O Rocket 3.4 16:52:29 10° SSW 16:56:36 37° W 17:00:42 10° NNW
Cosmos 1825 2.6 16:54:35 10° NNW 16:58:22 66° W 17:02:07 10° S
ALOS 4.1 16:54:10 10° SSW 16:58:27 35° W 17:02:46 10° NNW
GEOS 3 Rocket 3.9 16:53:36 10° NE 16:58:43 53° SE 17:03:52 10° SSW
NOAA 12 4.2 16:54:24 10° SE 16:59:37 57° ENE 17:04:51 10° N
CZ-4 R/B 2.3 16:57:29 10° ESE 17:01:00 27° ENE 17:04:28 10° N
Cosmos 2123 Rocket 4.0 16:54:58 10° S 17:01:12 88° E 17:07:26 10° N
ATLAS 3B R/B 3.9 16:58:12 10° WNW 17:03:59 30° NNW 17:09:49 10° NE
Cosmos 1869 4.2 17:01:32 10° SSE 17:04:54 28° E 17:08:17 10° NNE
Cosmos 1725 Rocket 4.4 16:59:54 10° NNW 17:06:13 71° W 17:12:29 10° S
SMAP 3.2 17:02:33 10° SSE 17:07:13 84° WSW 17:11:54 10° NNW
Cosmos 2219 3.1 17:02:21 10° NNW 17:08:00 80° ENE 17:13:38 10° SSE
Cosmos 1238 Rocket 3.0 17:07:04 10° N 17:12:00 85° E 17:15:58 10° S
Cosmos 1500 Rocket 3.7 17:09:04 10° NNW 17:13:29 79° W 17:17:50 10° S
Cosmos 2369 Rocket 3.9 17:10:38 10° WSW 17:15:26 28° NW 17:20:15 10° NNE
Cosmos 1939 Rocket 4.2 17:17:43 18° E 17:18:47 20° ENE 17:21:51 10° NNE
Cosmos 1633 Rocket 3.9 17:15:36 10° N 17:19:27 28° ENE 17:23:17 10° SE
Cosmos 1633 3.3 17:18:18 10° N 17:21:36 31° ENE 17:24:53 10° SE
COSMO-SKYMED 1 3.1 17:21:16 10° NNE 17:25:17 35° E 17:29:16 10° SSE
TELKOM 3 4.1 17:23:22 10° W 17:25:23 33° SSW 17:26:20 21° SSE
Elektron 3 4.3 17:24:14 10° WSW 17:27:22 51° NW 17:29:07 20° NE
COBE Rocket 3.8 17:22:59 10° NNE 17:27:51 68° E 17:32:33 10° S
CSL-04 Rocket 3.9 17:23:11 10° SE 17:28:17 46° ENE 17:33:21 10° N
FengYun 1-2 T 4.2 17:23:21 10° SSE 17:28:48 63° ENE 17:34:15 10° N
Cosmos 1666 Rocket 3.9 17:25:01 10° N 17:29:12 40° ENE 17:33:19 10° SE
Cosmos 2344 3.7 17:21:54 10° SW 17:29:25 82° NW 17:37:44 11° NE
Cosmos 1455 4.3 17:26:10 10° SW 17:29:27 28° WNW 17:32:45 10° N
Cosmos 1607 3.9 17:23:31 10° NW 17:29:46 89° SW 17:36:02 10° SE
Cosmos 2227 Rocket 2.1 17:24:47 10° NNW 17:30:30 76° ENE 17:36:10 10° SE
Cosmos 2297 Rocket 2.1 17:25:17 10° NNW 17:30:59 81° ENE 17:36:39 10° SSE
Sich 1 3.0 17:31:20 10° N 17:35:38 60° ENE 17:39:57 10° SSE
Cosmos 2084 4.3 17:34:49 10° NW 17:39:01 50° SW 17:43:05 10° SSE
Meteor 2-2 Rocket 4.2 17:33:54 10° S 17:39:46 78° E 17:45:33 10° NNE
YAOGAN 6 2.4 17:36:51 10° SSE 17:40:18 65° ENE 17:43:48 10° N
USA 215 3.3 17:37:19 19° E 17:42:15 71° NNE 17:48:46 10° WNW
NOSS 7 (D) 3.8 17:40:28 10° SW 17:43:23 80° NW 17:44:02 48° NNE
H-2A R/B 4.3 17:40:55 10° SSW 17:44:32 38° W 17:48:08 10° NNW
Envisat 3.1 17:41:40 10° S 17:46:45 77° WSW 17:51:52 10° NNW
Cosmos 2369 4.5 17:42:37 10° SSE 17:47:27 30° ESE 17:48:30 28° E
Cosmos 1513 Rocket 4.5 17:43:44 10° N 17:50:12 72° ENE 17:56:34 10° SSE
USA 229 DEB 3.7 17:43:53 10° SSW 17:50:16 56° ESE 17:54:26 24° NE
USA 229 3.7 17:44:02 10° SSW 17:50:23 55° ESE 17:54:29 24° NE
Cosmos 1862 3.3 17:46:52 10° N 17:50:48 55° ENE 17:54:41 10° SSE
Cosmos 2034 Rocket 4.1 17:45:01 10° N 17:51:15 56° ENE 17:57:29 10° SSE
Cosmos 1943 Rocket 4.4 17:50:59 10° WNW 17:54:43 18° NNW 17:58:29 10° N
NOSS 3-1 (A) 3.9 17:50:39 10° S 17:55:40 35° ESE 17:57:11 31° E
Cosmos 1371 Rocket 4.4 17:51:25 10° NNW 17:56:20 39° NE 17:57:27 35° E
Genesis I 3.2 17:52:45 10° SW 17:56:47 89° NNW 17:58:14 38° NE
Cosmos 2082 3.6 17:51:09 10° NNW 17:56:49 77° ENE 18:02:26 10° SE
NOSS 3-1 (C) 3.5 17:51:32 10° SSW 17:56:56 53° ESE 17:59:56 29° ENE
Cosmos 2263 Rocket 3.3 17:52:30 10° NNW 17:57:02 24° NE 17:57:19 24° NE
YAOGAN 1 2.4 17:52:57 10° SSE 17:57:15 74° ENE 18:01:36 10° N
Cosmos 1470 Rocket 4.1 17:55:41 10° N 17:59:34 39° ENE 17:59:34 39° ENE
Okean-O 4.0 17:56:58 10° S 18:01:09 41° W 18:05:23 10° NNW
Cosmos 2221 4.0 18:00:00 10° SW 18:04:01 37° WNW 18:08:06 10° N
SeaSat 1 4.1 18:02:49 10° S 18:07:18 35° WSW 18:11:49 10° NW
Cosmos 2278 4.5 18:03:02 10° SSE 18:07:11 31° ESE 18:07:11 31° ESE
Meteor 2-11 Rocket 4.3 18:02:22 10° N 18:08:29 69° ENE 18:14:36 10° SSE
USA 116 4.0 18:09:07 30° NNE 18:11:17 66° ESE 18:16:08 10° S
Cosmos 1697 Rocket 3.0 18:06:30 10° S 18:11:46 41° ESE 18:12:06 41° E
Cosmos 1356 Rocket 3.5 18:08:04 10° SSW 18:12:12 78° WNW 18:15:46 14° N
Geosat 4.4 18:08:09 15° NNE 18:12:20 60° NW 18:17:17 10° SW
SKYMED 2 3.6 18:09:11 10° NNE 18:13:34 81° WNW 18:17:54 10° SSW
Tsikada Rocket 4.2 18:08:24 10° SSE 18:14:23 45° E 18:20:27 10° NNE
Cosmos 1634 Rocket 4.3 18:08:39 10° N 18:14:26 39° ENE 18:14:34 39° ENE
ATLAS 5 CENTAUR R/B 3.1 18:11:45 10° NW 18:17:19 53° SW 18:23:39 10° SSE
CZ-3B R/B 3.7 18:14:49 10° W 18:16:51 39° NW 18:16:51 39° NW
Lacrosse 4 Rocket 2.8 18:13:37 10° S 18:15:35 24° SSE 18:15:35 24° SSE
Cosmos 1680 Rocket 4.0 18:16:20 10° S 18:20:18 40° SE 18:20:18 40° SE
H-2A R/B 3.5 18:31:12 24° NNE 18:31:12 24° NNE 18:33:42 10° N
Ariane Rocket 2.8 18:28:23 51° SE 18:29:36 71° ENE 18:34:42 10° NNW
Cosmos 1867 4.3 18:24:51 10° WSW 18:30:09 49° NW 18:32:48 28° NNE
CZ-4 R/B 3.0 18:32:02 10° SSW 18:35:55 36° W 18:39:45 10° NNW
GEOS 3 Rocket 4.5 18:34:18 27° NNE 18:36:43 44° NW 18:41:40 10° WSW
Cosmos 724 4.1 18:30:56 10° NW 18:36:51 89° NE 18:38:19 53° SE
USA 238 DEB 4.4 18:33:40 10° NW 18:40:12 38° NNE 18:41:12 37° NE
USA 238 4.4 18:33:46 10° NW 18:40:17 38° NNE 18:41:18 36° NE
CENTAUR R/B 3.9 18:34:23 10° NW 18:40:52 33° NNE 18:42:52 30° NE
NOAA 11 4.3 18:36:23 10° S 18:41:47 73° WSW 18:47:15 10° NNW
MOS 1 4.2 18:43:14 66° ENE 18:43:14 66° ENE 18:48:46 10° NNW
CZ-2D R/B 4.1 18:44:41 50° WNW 18:44:41 50° WNW 18:47:53 10° NNW
Cosmos 923 Rocket 3.8 18:39:50 10° SSW 18:45:04 86° ESE 18:45:14 83° ENE
NOSS 3-2 (A) 4.5 18:41:40 10° NW 18:48:11 39° NNE 18:49:04 38° NE
Cosmos 2056 Rocket 3.5 18:43:36 10° NNW 18:48:06 67° N 18:48:06 67° N
Cosmos 1624 Rocket 3.9 18:43:33 10° NNW 18:48:43 80° NNE 18:48:43 80° NNE
Cosmos 1656 3.8 18:45:19 10° SW 18:50:51 69° WNW 18:52:28 45° N
Cosmos 1939 Rocket 3.7 18:53:38 51° W 18:53:38 51° W 18:57:28 10° NNW
ATLAS 3B R/B 3.8 18:50:59 10° NW 18:56:39 28° N 18:57:16 28° NNE
COSMO-SKYMED 1 4.4 18:57:34 10° N 19:01:23 30° WNW 19:05:10 10° SW
Cosmos 1980 Rocket 4.0 19:09:10 10° SSW 19:10:50 20° SSW 19:10:50 20° SSW
Gblst 52 Del rocket 4.4 19:08:46 10° W 19:15:03 77° WNW 19:15:03 77° WNW
USA 215 3.6 19:24:41 52° SSW 19:25:26 55° SW 19:31:52 10° WNW
Cosmos 2369 4.4 19:25:46 10° SW 19:30:30 51° W 19:30:30 51° W
USA 229 DEB 4.3 19:34:55 10° WSW 19:41:23 50° NNW 19:41:54 49° NNW
USA 229 4.3 19:35:01 10° WSW 19:41:29 50° NNW 19:41:57 49° NNW
Cosmos 2263 Rocket 3.5 19:36:03 10° NNW 19:39:01 33° NNW 19:39:01 33° NNW
NOSS 3-1 (A) 4.2 19:40:29 10° WSW 19:44:40 47° W 19:44:40 47° W
NOSS 3-1 (C) 4.3 19:42:17 10° WSW 19:47:22 46° NW 19:47:22 46° NW
Cosmos 1697 Rocket 4.2 19:50:23 10° WSW 19:53:53 32° W 19:53:53 32° W
H-2A R/B 4.4 20:11:50 19° NNW 20:11:50 19° NNW 20:13:25 10° NNW
CENTAUR R/B 4.1 20:25:34 10° NW 20:30:03 38° NNW 20:30:03 38° NNW
